Location: Unspecified
(33.6682°S, 0.0000°E)
Time: 21:24:36
(UTC+00:00)

Vanguard 2 Rocket - Pass Details

Date: 23 June 2019
Orbit: 554 x 3326 km, 32.9° (Epoch: 18 July)

Event Time Altitude Azimuth Distance (km) Brightness Sun altitude
Rises 05:40:27 0° 331° (NNW) 7,299 11.4 -17.0°
Reaches altitude 10° 05:46:27 10° 340° (NNW) 6,233 11.1 -15.8°
Maximum altitude 06:01:57 31° 32° (NNE) 4,100 10.8 -12.8°
Drops below altitude 10° 06:13:25 10° 87° (E) 4,641 11.8 -10.5°
Sets 06:17:00 0° 97° (E) 5,270 12.0 -9.8°
